Location: Newark
(41.0400°S, 62.7845°W)
Time: 20:37:30
(UTC+00:00)

N. Korean satellite - Visible Passes

Search period start: 18 September 2020 00:00
Search period end: 28 September 2020 00:00
Orbit: 455 x 503 km, 97.2° (Epoch: 17 September)

Date Brightness Start Highest point End Pass type
(mag) Time Alt. Az. Time Alt. Az. Time Alt. Az.
18 Sep 6.9 08:47:22 10° NNE 08:50:51 65° ESE 08:54:22 10° S visible
19 Sep 8.6 08:21:52 10° NE 08:24:58 29° ESE 08:28:03 10° S visible
19 Sep 10.0 22:55:28 10° SW 22:57:08 13° WSW 22:58:49 10° W visible
20 Sep 9.8 07:57:09 10° ENE 07:59:08 15° ESE 08:01:08 10° SSE visible
20 Sep 7.2 09:29:01 10° NNW 09:32:12 32° W 09:35:25 10° SSW visible
20 Sep 9.2 22:28:22 10° SSW 22:31:20 26° WSW 22:34:18 10° NW visible
21 Sep 6.4 09:02:39 10° N 09:06:09 75° W 09:09:40 10° SSW visible
22 Sep 7.7 08:36:49 10° NNE 08:40:11 46° ESE 08:43:34 10° S visible
23 Sep 9.2 08:11:34 10° ENE 08:14:18 22° ESE 08:17:03 10° SSE visible
23 Sep 9.8 22:44:07 10° SSW 22:46:31 17° WSW 22:48:55 10° WNW visible
24 Sep 10.2 07:47:34 10° E 07:48:31 11° ESE 07:49:29 10° SE visible
24 Sep 6.8 09:18:05 10° N 09:21:27 44° W 09:24:49 10° SSW visible
25 Sep 6.6 08:51:56 10° NNE 08:55:25 77° ESE 08:58:55 10° S visible
26 Sep 8.4 08:26:20 10° NE 08:29:29 33° ESE 08:32:39 10° S visible
26 Sep 10.2 23:00:20 10° SW 23:01:38 12° WSW 23:02:57 10° W visible
27 Sep 9.7 08:01:23 10° ENE 08:03:38 16° ESE 08:05:53 10° SSE visible
